Weather in Perekhlyay

Russia / Kemerovo Oblast     54°52′46″N   86°34′52″E
temp.,
°C
wind,
m/s
gust,
m/s
humid.,
%
clouds,
%
prec.,
mm/h
press.,
hPa
HPBL,
m
26 july, mon
mon2601:00+19se248789 0.0 100482
04:00+17ese2493100 0.0 100475
07:00+18se2696100 1.3 1003162
10:00+22sse458231 0.1 1002476
13:00+27s45645 0.1 1001976
16:00+28s255849 2.7 10001283
19:00+20nnw6119592 5.9 999296
22:00+18sw349160 1.3 100166
27 july, tue
tue2701:00+17w4998100 2.7 1002384
04:00+15wnw5896100 0.2 1004584
07:00+12wnw4796100 0.4 1007599
10:00+12wnw4684100 0.0 1009874
13:00+14wnw3572100 0.1 10091135
16:00+16nw2468100 0.0 1010935
19:00+17ese12650 0.1 1009655
22:00+13s228072 0.0 101054
28 july, wed
wed2801:00+10se11893 0.0 101010
04:00+9nnw11905 0.0 101010
07:00+11e118659 0.0 101043
10:00+15wnw1173100 0.0 1010233
13:00+17wnw226576 0.0 1010372
16:00+19w225134 0.0 10101352
19:00+18w236580 0.0 1010477
22:00+13w2282100 0.4 101112
29 july, thu
thu2901:00+11n118569 0.4 101110
04:00+9w01865 0.0 101110
07:00+11e11865 0.0 101136
10:00+17sse11685 0.0 1011410
13:00+20wsw22511 0.0 10111482
16:00+21wnw224518 0.0 10102008
19:00+20n22625 0.0 1010220
22:00+13ne22754 0.0 101010
30 july, fri
fri3001:00+11ne11804 0.0 101010
04:00+10ene11803 0.0 101010
07:00+12nw13795 0.0 101182
10:00+18wnw22595 0.0 1011503
13:00+21wnw33515 0.1 10121301
16:00+22wnw22503 0.0 10111405
19:00+19nw46715 0.2 1012274
22:00+14wnw117912 0.4 101311